Flag for Canada Weather past 2 weeks in Cambridge, Ontario, Canada

Now
18 °F

Clear.


Feels Like: 18 °F
Forecast: 11 / 31 °F
Wind: No wind

Location: Waterloo Well

Current Time: Jan 28, 2015 at 7:48:52 PM

Latest Report: Jan 28, 2015 at 7:00 PM


Visibility: 9 mi

Pressure: 30.33 "Hg

Humidity: 58%

Dew point: 5 °F

Location of CambridgeLocation

Historic Weather in Cambridge — Graph

°F

Cambridge temperature yesterday

Maximum temperature yesterday: 19 °F (at 4:00 PM)
Minimum temperature yesterday: 5 °F (at 11:00 PM)
Average temperature yesterday: 12 °F

Past Weeks' High & Low Weather Summary

 TemperatureHumidityPressure
High41 °F (Jan 17, 11:00 PM)100% (Jan 18, 8:00 AM)30.71 "Hg (Jan 18, 8:00 AM)
Low-9 °F (Jan 14, 3:00 AM)26% (Jan 28, 4:00 PM)29.49 "Hg (Jan 24, 2:59 PM)
Average17 °F79%30.03 "Hg
* Reported Jan 13 6:00 PM — Jan 28 6:00 PM, Cambridge, Weather by CustomWeather, © 2014

Note: Actual official high and low records may vary slightly from our data, if they occured in-between our weather recording intervals... More about our weather records

Advertising

Cambridge weather history for previous 24 hours

 ConditionsComfort  
Time TempWeatherWind HumidityBarometerVisibility
6:00 PM
Jan 28
18 °FClear.3 mph53%30.32 "Hg9 mi
5:00 PM23 °FSunny.3 mph36%30.32 "Hg9 mi
4:00 PM27 °FSunny.9 mph26%30.31 "Hg9 mi
3:00 PM27 °FSunny.No wind28%30.31 "Hg9 mi
2:00 PM25 °FSunny.No wind28%30.31 "Hg9 mi
1:00 PM23 °FSunny.2 mph42%30.32 "Hg9 mi
12:00 PM19 °FSunny.3 mph58%30.34 "Hg9 mi
11:00 AM16 °FSunny.9 mph67%30.37 "Hg9 mi
10:00 AM12 °FSunny.8 mph73%30.36 "Hg9 mi
9:00 AM7 °FSunny.9 mph85%30.35 "Hg9 mi
8:00 AM3 °FSunny.5 mph85%30.32 "Hg9 mi
7:00 AM3 °FClear.7 mph85%30.29 "Hg9 mi
6:00 AM1 °FClear.6 mph92%30.26 "Hg9 mi
5:00 AM5 °FClear.9 mph85%30.25 "Hg9 mi
4:00 AM3 °FClear.7 mph85%30.24 "Hg9 mi
3:00 AM3 °FClear.5 mph92%30.22 "Hg9 mi
2:00 AM3 °FClear.3 mph85%30.20 "Hg9 mi
1:00 AM3 °FClear.3 mph85%30.19 "Hg9 mi
12:00 AM5 °FClear.7 mph85%30.19 "Hg9 mi
11:00 PM
Jan 27
5 °FClear.7 mph85%30.18 "Hg9 mi
10:00 PM7 °FClear.6 mph72%30.19 "Hg9 mi
9:00 PM7 °FClear.7 mph72%30.19 "Hg9 mi
8:00 PM10 °FClear.9 mph67%30.19 "Hg9 mi
7:00 PM12 °FClear.7 mph44%30.18 "Hg9 mi
Weather by CustomWeather, © 2014

See weather overviewHow to use our weather pages